[[{"header":{"parameterUnit":"m.s-1","parameterCategory":1,"la1":30.2992,"la2":30.254,"lo1":-89.0895,"lo2":-89.0443,"dy":0.0025,"dx":0.0025,"nx":19,"ny":19,"refTime":"2026-04-24T03:00:00:Z","depth":0,"parameterNumber":2,"parameterNumberName":"U-component_of_WINDS"},"data":[0,0,0,0.7422,0.7421,0.7361,0.7361,0.7291,0.7291,0,0,0,0,0,0,0,0,0,0,0,0.7448,0.7448,0.7422,0.7421,0.7361,0.7361,0.7291,0.7291,0,0,0,0,0,0,0,0,0,0,0,0.7448,0.7448,0.7448,0.7421,0.7361,0.7361,0.7292,0.7333,0,0,0,0,0,0,0,0,0,0,0.739,0.7423,0.7448,0.7448,0.742,0.7361,0.7361,0.7335,0.7331,0.7323,0,0.7321,0,0.7305,0.7287,0.7287,0,0,0,0.7414,0.7426,0.7403,0.7448,0.742,0.7361,0.7386,0.7333,0.7328,0.7317,0.732,0.7317,0.7304,0.7287,0.7286,0.727,0.727,0,0,0.7418,0.7441,0.7407,0.7401,0.7414,0.7388,0.7384,0.7329,0.7333,0.732,0.7315,0.7303,0.7286,0.7286,0.7269,0.727,0,0,0,0.7432,0.7443,0.7421,0.7404,0.7392,0.7387,0.7382,0.7335,0.7326,0.7314,0.7302,0.7286,0.7285,0.7269,0.727,0.7305,0,0,0,0.7433,0.7452,0.7423,0.7437,0.7394,0.7364,0.7389,0.733,0.7323,0.7302,0.7286,0.7285,0.7269,0.7269,0.7303,0.7317,0,0,0,0.7449,0.7453,0.7448,0.7438,0.7413,0.7364,0.7352,0.7328,0.7316,0.7287,0.7285,0.7269,0.7269,0.7302,0.7314,0.7319,0,0,0,0.7472,0.7479,0.7449,0.7451,0.7414,0.7387,0.7352,0.733,0.7309,0.7286,0.7269,0.7269,0.7301,0.7313,0.7317,0.7326,0.7333,0,0,0.7493,0.7482,0.7482,0.7453,0.7438,0.7395,0.7383,0.7341,0.7315,0.7285,0.7285,0.7303,0.7314,0.7318,0.736,0.7365,0,0,0,0.7496,0.7497,0.7487,0.747,0.744,0.7413,0.7371,0.7355,0.7328,0.7306,0.7306,0.7311,0.7313,0.7316,0.732,0.7319,0.7272,0.7272,0.7272,0.756,0.7529,0.7525,0.7487,0.747,0.7426,0.7408,0.7378,0.735,0.7351,0.7342,0.7371,0.7376,0.7379,0.7378,0.7344,0.7344,0.7344,0.7344,0.7588,0.7583,0.7546,0.753,0.7496,0.7481,0.7437,0.7418,0.7397,0.7376,0.7375,0.7355,0.7386,0.7383,0.7347,0.7346,0.7346,0.7346,0.7346,0.7626,0.7617,0.7599,0.757,0.755,0.7509,0.7491,0.746,0.743,0.743,0.7415,0.7415,0.7409,0.7425,0.7425,0.7425,0.7425,0.7426,0.7426,0.7672,0.765,0.764,0.7608,0.7592,0.7566,0.7521,0.7503,0.7475,0.7453,0.7453,0.7424,0.7395,0.7388,0.7427,0.7427,0.7427,0.7426,0.7426,0.7711,0.7697,0.7682,0.7666,0.7624,0.7606,0.7566,0.7532,0.7512,0.7504,0.7474,0.7459,0.7445,0.7441,0.7435,0.7483,0.7483,0.7483,0.7483,0.7742,0.7732,0.7709,0.7685,0.7658,0.7621,0.7601,0.7565,0.7524,0.7509,0.7498,0.7487,0.7485,0.7471,0.7467,0.7461,0.7514,0.7514,0.7514,0.7763,0.7749,0.7741,0.7704,0.7669,0.7638,0.7618,0.7589,0.7539,0.7515,0.7496,0.7495,0.7478,0.7474,0.7449,0.7443,0.7431,0,0]},{"header":{"parameterUnit":"m.s-1","parameterCategory":1,"la1":30.2992,"la2":30.254,"lo1":-89.0895,"lo2":-89.0443,"dy":0.0025,"dx":0.0025,"nx":19,"ny":19,"refTime":"2026-04-24T03:00:00:Z","depth":0,"parameterNumber":3,"parameterNumberName":"V-component_of_WINDS"},"data":[0,0,0,3.7114,3.7115,3.7156,3.7156,3.7217,3.7218,0,0,0,0,0,0,0,0,0,0,0,3.7108,3.7109,3.7114,3.7115,3.7156,3.7156,3.7217,3.7218,0,0,0,0,0,0,0,0,0,0,0,3.7108,3.7109,3.7109,3.7115,3.7156,3.7156,3.7217,3.7182,0,0,0,0,0,0,0,0,0,0,3.7141,3.7143,3.7108,3.711,3.7115,3.7156,3.7156,3.7181,3.7185,3.7203,0,3.7222,0,3.7221,3.7223,3.7223,0,0,0,3.7109,3.714,3.7145,3.711,3.7116,3.7156,3.7136,3.7183,3.7187,3.7208,3.7223,3.7225,3.7222,3.7223,3.7223,3.7349,3.7349,0,0,3.7107,3.7119,3.7142,3.7148,3.7144,3.7135,3.7137,3.7185,3.7202,3.7223,3.7226,3.7223,3.7224,3.7224,3.7348,3.7349,0,0,0,3.7104,3.7118,3.7121,3.7146,3.7153,3.7136,3.7139,3.7199,3.72,3.7226,3.7224,3.7224,3.7225,3.7347,3.7348,3.7402,0,0,0,3.7103,3.7116,3.7121,3.7128,3.7152,3.7177,3.7152,3.7196,3.7201,3.7223,3.7224,3.7226,3.7346,3.7348,3.7398,3.7425,0,0,0,3.7103,3.7116,3.7124,3.7129,3.7147,3.7176,3.7179,3.7197,3.72,3.7223,3.7226,3.7345,3.7347,3.7395,3.742,3.7461,0,0,0,3.7107,3.7171,3.7125,3.7195,3.7147,3.7209,3.7178,3.7224,3.725,3.7224,3.7346,3.7348,3.7394,3.7416,3.7458,3.7498,3.7516,0,0,3.7194,3.7182,3.7222,3.7182,3.7256,3.7202,3.7282,3.7294,3.7285,3.7328,3.733,3.7399,3.7419,3.746,3.7613,3.7628,0,0,0,3.7253,3.7283,3.7299,3.7325,3.7337,3.7348,3.7347,3.7351,3.7387,3.731,3.7425,3.7437,3.746,3.7479,3.7491,3.751,3.7357,3.7357,3.7357,3.7394,3.7379,3.7444,3.7435,3.746,3.7458,3.7476,3.7481,3.7459,3.7486,3.7499,3.7593,3.7616,3.7625,3.7645,3.7519,3.7519,3.7519,3.7519,3.752,3.7559,3.7527,3.7579,3.7563,3.7606,3.7605,3.7588,3.7625,3.7583,3.7603,3.7558,3.7641,3.7658,3.7523,3.7523,3.7522,3.7522,3.7521,3.761,3.7626,3.7631,3.7666,3.7695,3.7682,3.7719,3.7702,3.7687,3.7706,3.7718,3.7717,3.7714,3.7713,3.7713,3.7714,3.7714,3.7714,3.7714,3.7703,3.7706,3.774,3.7757,3.7771,3.7787,3.7785,3.7797,3.7807,3.7792,3.7792,3.7766,3.7652,3.7624,3.7719,3.7719,3.7718,3.7717,3.7717,3.7836,3.7803,3.7856,3.787,3.7888,3.7917,3.7895,3.7922,3.793,3.7949,3.7919,3.7837,3.7823,3.7813,3.779,3.7922,3.7922,3.7922,3.7922,3.7913,3.7904,3.7953,3.7977,3.7998,3.7983,3.8041,3.804,3.8032,3.8036,3.8015,3.7982,3.7972,3.7964,3.7951,3.7928,3.8093,3.8093,3.8093,3.7994,3.7986,3.804,3.8033,3.8046,3.8056,3.811,3.8138,3.8122,3.81,3.8039,3.8032,3.7978,3.7962,3.7939,3.7919,3.7877,0,0]}]]